Weather History for MMMM - November, 2012

Change the Weather History Date:

Tuesday, November 20, 2012

  Actual Average Record
Temperature  
Mean Temperature 60 °F -  
Max Temperature 79 °F 73 °F 82 °F (2011)
Min Temperature 42 °F 46 °F 35 °F (2002)
Degree Days  
Heating Degree Days 4    
Growing Degree Days 10 (Base 50)    
Moisture  
Dew Point 38 °F    
Average Humidity 56    
Maximum Humidity 100    
Minimum Humidity 13    
Precipitation  
Precipitation 0.00 in 0.02 in - ()
Sea Level Pressure  
Sea Level Pressure 30.13 in    
Wind  
Wind Speed 2 mph ()    
Max Wind Speed 11 mph    
Max Gust Speed -    
Visibility 7.1 miles    
Events      
Averages and records for this station are not official NWS values.
T = Trace of Precipitation, MM = Missing Value Source: Averaged Metar Reports

Daily Weather History Graph

Daily Weather History Graph

Search for Another Location

Airport or City:

Trip Planner

Search our weather history database for the weather conditions in past years. The results will help you decide how hot, cold, wet, or windy it might be!

Date:

Astronomy

Nov. 20, 2012 Rise Set
Actual Time 6:55 AM CST 6:03 PM CST
Civil Twilight 6:32 AM CST 6:27 PM CST
Nautical Twilight 6:05 AM CST 6:53 PM CST
Astronomical Twilight 5:39 AM CST 7:20 PM CST
Moon 12:58 PM CST (11/20) 12:11 AM CST (11/20)
Length of Visible Light 11h 54m
Length of Day
11h 07m
First Quarter, 51% of the Moon is Illuminated
Nov 20
First Quarter
Nov 28
Full
Dec 6
Last Quarter
Dec 13
New
Dec 19
First Quarter

Hourly Weather History & Observations

Time (CST) Temp. Dew Point Humidity Pressure Visibility Wind Dir Wind Speed Gust Speed Precip Events Conditions
12:45 AM 42.8 °F 37.4 °F 81% 30.29 in 7.0 mi Calm Calm - N/A   Clear
1:44 AM 42.8 °F 37.4 °F 81% 30.29 in 7.0 mi Calm Calm - N/A   Clear
2:44 AM 41.0 °F 35.6 °F 81% 29.97 in 7.0 mi Calm Calm - N/A   Clear
2:45 AM 50 °F 43 °F 70% 29.95 in 5 mi SSE 4.5 mph - -  
3:41 AM 37.4 °F 33.8 °F 87% 30.28 in 7.0 mi Calm Calm - N/A   Clear
4:44 AM 35.6 °F 35.6 °F 100% 30.29 in 7.0 mi Calm Calm - N/A   Clear
5:45 AM 46 °F 42 °F 80% 30.06 in 5 mi WSW 4.5 mph - -  
5:49 AM 35.6 °F 33.8 °F 93% 30.04 in 7.0 mi Calm Calm - N/A   Clear
6:45 AM 33.8 °F 32.0 °F 93% 30.30 in 7.0 mi Calm Calm - N/A   Clear
7:30 AM 37.4 °F 35.6 °F 93% 30.31 in 7.0 mi Calm Calm - N/A   Partly Cloudy
7:44 AM 42.8 °F 37.4 °F 81% 30.31 in 7.0 mi Calm Calm - N/A   Scattered Clouds
8:24 AM 48.2 °F 41.0 °F 76% 30.32 in 8.0 mi Calm Calm - N/A   Scattered Clouds
8:46 AM 50.0 °F 42.8 °F 76% 30.08 in 8.0 mi Calm Calm - N/A   Scattered Clouds
8:55 AM 53 °F 44 °F 62% 30.14 in 6 mi SSW 6.7 mph - -  
9:09 AM 55.4 °F 44.6 °F 67% 30.34 in 8.0 mi Variable 3.5 mph - N/A   Scattered Clouds
9:42 AM 57.2 °F 41.0 °F 55% 30.34 in 8.0 mi Calm Calm - N/A   Scattered Clouds
10:43 AM 64.4 °F 41.0 °F 42% 30.32 in 8.0 mi WNW 5.8 mph - N/A   Scattered Clouds
11:49 AM 68.0 °F 42.8 °F 40% 29.94 in 8.0 mi NW 5.8 mph - N/A   Scattered Clouds
11:55 AM 70 °F 41 °F 24% 30.08 in 7 mi NNE 11.2 mph - -  
12:43 PM 71.6 °F 41.0 °F 33% 30.25 in 8.0 mi Variable 3.5 mph - N/A   Scattered Clouds
1:47 PM 78.8 °F 35.6 °F 21% 30.20 in 8.0 mi North 8.1 mph - N/A   Scattered Clouds
2:45 PM 78.8 °F 33.8 °F 20% 29.84 in 8.0 mi NNE 8.1 mph - N/A   Scattered Clouds
2:50 PM 77 °F 40 °F 16% 29.90 in 9 mi NE 6.7 mph - -  
3:40 PM 78.8 °F 33.8 °F 20% 30.15 in 8.0 mi West 5.8 mph - N/A   Partly Cloudy
4:43 PM 78.8 °F 32.0 °F 18% 30.15 in 8.0 mi NNE 4.6 mph - N/A   Clear
5:41 PM 73.4 °F 33.8 °F 23% 29.83 in 8.0 mi ENE 6.9 mph - N/A   Clear
5:50 PM 73 °F 33 °F 13% 29.80 in 9 mi North 6.7 mph - -  
7:07 PM 62.6 °F 33.8 °F 34% 30.20 in 7.0 mi NNE 3.5 mph - N/A   Clear
7:44 PM 60.8 °F 35.6 °F 39% 30.22 in 6.0 mi Calm Calm - N/A   Clear
8:48 PM 57.2 °F 33.8 °F 41% 30.01 in 6.0 mi East 3.5 mph - N/A   Clear
8:55 PM 61 °F 54 °F 70% 29.80 in 5 mi SSE 2.2 mph - -  
9:40 PM 51.8 °F 33.8 °F 50% 30.28 in 6.0 mi Calm Calm - N/A   Clear
10:45 PM 51.8 °F 35.6 °F 54% 30.28 in 6.0 mi Calm Calm - N/A   Clear
11:48 PM 44.6 °F 37.4 °F 76% 30.00 in 6.0 mi Calm Calm - N/A   Clear
11:55 PM 55 °F 44 °F 56% 29.87 in 5 mi SSE 2.2 mph - -